Asheville, NC

10:49 AM EST on December 16, 2017 (GMT -0500)
Asheville Regional

Weather History for KAVL - July, 2006

Change the Weather History Date:

Monday, July 3, 2006

  Actual Average Record
Temperature  
Mean Temperature 74 °F 73 °F  
Max Temperature 88 °F 84 °F 93 °F (1970)
Min Temperature 60 °F 63 °F 50 °F (2008)
Degree Days  
Heating Degree Days 0 0  
Month to date heating degree days 0  
Since 1 June heating degree days 14  
Since 1 July heating degree days 0  
Cooling Degree Days 8 8  
Month to date cooling degree days 24  
Year to date cooling degree days 259  
Since 1 June cooling degree days 201  
Growing Degree Days 24 (Base 50)    
Moisture  
Dew Point 61 °F    
Average Humidity 69    
Maximum Humidity 93    
Minimum Humidity 41    
Precipitation  
Precipitation 0.00 in 0.14 in 3.21 in (2013)
Month to date precipitation 0.43  
Year to date precipitation 23.33  
Snow  
Snow 0.00 in 0.00 in 0.00 in ()
Month to date snowfall 0.0  
Since 1 June snowfall 0.0  
Since 1 July snowfall 0.0  
Snow Depth -    
Sea Level Pressure  
Sea Level Pressure 30.19 in    
Wind  
Wind Speed 2 mph (WSW)    
Max Wind Speed 15 mph    
Max Gust Speed 24 mph    
Visibility 8 miles    
Events      
T = Trace of Precipitation, MM = Missing Value Source: NWS Daily Summary

Daily Weather History Graph

Daily Weather History Graph

Search for Another Location

Airport or City:

Trip Planner

Search our weather history database for the weather conditions in past years. The results will help you decide how hot, cold, wet, or windy it might be!

Date:

Astronomy

Jul. 03, 2006 Rise Set
Actual Time 6:19 AM EDT 8:49 PM EDT
Civil Twilight 5:49 AM EDT 9:18 PM EDT
Nautical Twilight 5:12 AM EDT 9:55 PM EDT
Astronomical Twilight 4:32 AM EDT 10:36 PM EDT
Moon 1:43 PM EDT (7/3) 12:57 AM EDT (7/3)
Length of Visible Light 15h 29m
Length of Day
14h 29m
Waxing Crescent, 50% of the Moon is Illuminated
Jul 3
Waxing Crescent
Jul 3
First Quarter
Jul 10
Full
Jul 17
Last Quarter
Jul 25
New

Hourly Weather History & Observations

Time (EDT) Temp. Heat Index Dew Point Humidity Pressure Visibility Wind Dir Wind Speed Gust Speed Precip Events Conditions
12:54 AM 64.9 °F - 62.1 °F 90% 30.23 in 9.0 mi Calm Calm - N/A   Clear
1:54 AM 63.0 °F - 60.1 °F 90% 30.22 in 7.0 mi Calm Calm - N/A   Clear
2:54 AM 63.0 °F - 60.1 °F 90% 30.21 in 7.0 mi Calm Calm - N/A   Clear
3:54 AM 62.1 °F - 59.0 °F 90% 30.20 in 8.0 mi Calm Calm - N/A   Clear
4:54 AM 61.0 °F - 57.9 °F 90% 30.20 in 6.0 mi Calm Calm - N/A   Clear
5:54 AM 60.1 °F - 57.0 °F 90% 30.22 in 7.0 mi WNW 3.5 mph - N/A   Clear
6:54 AM 60.1 °F - 57.9 °F 93% 30.23 in 5.0 mi WNW 3.5 mph - N/A   Clear
7:54 AM 63.0 °F - 59.0 °F 87% 30.24 in 6.0 mi Calm Calm - N/A   Clear
8:54 AM 68.0 °F - 61.0 °F 78% 30.25 in 8.0 mi Calm Calm - N/A   Clear
9:54 AM 73.9 °F - 63.0 °F 68% 30.24 in 9.0 mi Calm Calm - N/A   Clear
10:54 AM 80.1 °F 81.5 °F 63.0 °F 56% 30.23 in 10.0 mi NW 3.5 mph - N/A   Clear
11:54 AM 82.0 °F 83.4 °F 64.0 °F 54% 30.23 in 9.0 mi Calm Calm - N/A   Partly Cloudy
12:54 PM 86.0 °F 86.3 °F 62.1 °F 44% 30.21 in 10.0 mi North 8.1 mph - N/A   Clear
1:54 PM 87.1 °F 87.0 °F 61.0 °F 41% 30.18 in 10.0 mi North 4.6 mph - N/A   Clear
2:54 PM 86.0 °F 85.7 °F 60.1 °F 41% 30.17 in 10.0 mi WSW 15.0 mph 24.2 mph N/A   Clear
3:54 PM 82.0 °F 82.7 °F 61.0 °F 49% 30.17 in 10.0 mi Variable 5.8 mph - N/A   Partly Cloudy
4:54 PM 86.0 °F 86.1 °F 61.0 °F 43% 30.15 in 10.0 mi South 5.8 mph - N/A   Clear
5:54 PM 84.9 °F 84.8 °F 60.1 °F 43% 30.15 in 10.0 mi SSW 9.2 mph - N/A   Partly Cloudy
6:54 PM 82.0 °F 83.0 °F 62.1 °F 51% 30.15 in 10.0 mi South 5.8 mph - N/A   Partly Cloudy
7:54 PM 78.1 °F - 64.9 °F 64% 30.14 in 9.0 mi SSE 3.5 mph - N/A   Mostly Cloudy
8:54 PM 75.9 °F - 64.0 °F 67% 30.15 in 7.0 mi East 3.5 mph - N/A   Clear
9:54 PM 75.0 °F - 64.0 °F 69% 30.16 in 8.0 mi Calm Calm - N/A   Overcast
10:54 PM 72.0 °F - 64.9 °F 78% 30.17 in 7.0 mi Calm Calm - N/A   Overcast
11:54 PM 70.0 °F - 64.9 °F 84% 30.16 in 6.0 mi Calm Calm - N/A   Haze